TimeCDT,TemperatureF,Dew PointF,Humidity,Sea Level PressureIn,VisibilityMPH,Wind Direction,Wind SpeedMPH,Gust SpeedMPH,PrecipitationIn,Events,Conditions,WindDirDegrees,DateUTC
12:55 AM,27.0,19.9,75,30.14,10.0,WNW,6.9,-,N/A,,Clear,300,2012-10-10 05:55:00
1:55 AM,25.0,19.0,78,30.15,10.0,West,6.9,-,N/A,,Clear,260,2012-10-10 06:55:00
2:55 AM,25.0,19.9,81,30.15,10.0,WNW,5.8,-,N/A,,Clear,290,2012-10-10 07:55:00
3:55 AM,28.0,21.9,78,30.14,10.0,WSW,5.8,-,N/A,,Clear,240,2012-10-10 08:55:00
4:55 AM,26.1,19.9,78,30.14,10.0,SW,6.9,-,N/A,,Clear,220,2012-10-10 09:55:00
5:55 AM,26.1,19.0,75,30.15,10.0,Calm,Calm,-,N/A,,Clear,0,2012-10-10 10:55:00
6:55 AM,25.0,19.9,81,30.15,10.0,SSW,3.5,-,N/A,,Clear,200,2012-10-10 11:55:00
7:55 AM,26.1,19.9,78,30.16,10.0,South,3.5,-,N/A,,Clear,180,2012-10-10 12:55:00
8:55 AM,30.9,23.0,72,30.16,10.0,Calm,Calm,-,N/A,,Clear,0,2012-10-10 13:55:00
9:55 AM,39.0,23.0,53,30.14,10.0,SSW,6.9,-,N/A,,Clear,210,2012-10-10 14:55:00
10:55 AM,48.0,24.1,39,30.13,10.0,SSW,8.1,-,N/A,,Clear,210,2012-10-10 15:55:00
11:55 AM,55.9,23.0,28,30.08,10.0,WSW,12.7,16.1,N/A,,Clear,240,2012-10-10 16:55:00
12:55 PM,57.9,21.9,25,30.06,10.0,WSW,10.4,19.6,N/A,,Clear,240,2012-10-10 17:55:00
1:55 PM,61.0,24.1,24,30.01,10.0,SSW,11.5,19.6,N/A,,Clear,210,2012-10-10 18:55:00
2:55 PM,64.0,27.0,25,29.96,10.0,SSW,15.0,25.3,N/A,,Clear,200,2012-10-10 19:55:00
3:55 PM,64.9,28.0,25,29.93,10.0,SSW,17.3,23.0,N/A,,Clear,210,2012-10-10 20:55:00
4:55 PM,66.0,28.9,25,29.89,10.0,SW,11.5,23.0,N/A,,Clear,230,2012-10-10 21:55:00
5:55 PM,66.0,28.9,25,29.87,10.0,SW,9.2,-,N/A,,Clear,220,2012-10-10 22:55:00
6:55 PM,61.0,28.9,30,29.87,10.0,SSW,5.8,-,N/A,,Clear,200,2012-10-10 23:55:00
7:55 PM,57.9,30.0,35,29.86,10.0,South,10.4,-,N/A,,Clear,190,2012-10-11 00:55:00
8:55 PM,57.0,30.9,37,29.85,10.0,SSW,11.5,-,N/A,,Clear,200,2012-10-11 01:55:00
9:55 PM,53.1,30.9,43,29.84,10.0,South,6.9,-,N/A,,Clear,190,2012-10-11 02:55:00
10:55 PM,52.0,30.9,45,29.82,10.0,South,10.4,-,N/A,,Clear,190,2012-10-11 03:55:00
11:55 PM,50.0,30.9,48,29.81,10.0,SSW,10.4,-,N/A,,Clear,210,2012-10-11 04:55:00